Temp
84 84 83 84 83 83 83 83 83 84 84 83 83 83 83 83 83 83 83 83 83 84 84 84 84 84 84 84 84 84 83 83 83 84 84 83 83 83 83 83 84 85 82
88 85 83 84 84 84 83 83 84 84 83 83 83 83 84 84 84 83 84 84 84 84 84 84 84 84 84 84 84 84 83 83 84 84 84 84 83 83 83 84 84 83 83
86 84 85 83 84 84 84 84 84 84 84 83 83 84 83 83 84 83 84 84 84 84 84 84 84 84 84 84 84 83 83 83 84 84 84 85 84 83 84 84 83 82 82
88 87 85 83 83 83 83 83 83 84 83 83 83 83 83 84 84 84 84 84 84 84 84 84 84 84 84 84 84 84 84 84 84 83 82 77 88 84 84 83 83 82 82
86 86 84 83 82 83 83 83 83 83 83 84 84 84 84 84 84 84 84 84 84 84 84 84 84 84 84 84 84 84 84 84 84 84 80 82 82 84 84 83 83 83 83
88 87 84 83 83 84 84 83 84 84 84 84 84 84 84 83 84 84 84 84 84 84 84 84 84 85 85 85 85 85 84 84 75 72 71 84 81 83 84 84 84 83 82
87 85 84 83 83 83 83 84 83 84 84 84 84 84 83 83 84 84 84 84 84 84 84 84 84 85 85 85 84 84 84 84 73 72 70 75 82 82 84 83 83 82 82
88 85 85 83 83 83 84 84 84 84 84 84 84 84 84 83 83 84 84 84 84 84 84 84 84 84 85 85 84 84 84 84 82 72 71 72 73 82 84 83 83 83 82
88 87 86 84 84 84 84 84 84 84 84 84 84 84 84 84 84 84 84 84 84 84 84 84 84 84 84 84 84 84 83 84 75 73 75 70 72 82 83 83 83 82 82
88 88 87 85 86 86 85 83 84 84 84 84 84 84 84 84 84 84 83 83 84 84 85 85 85 84 84 84 84 84 84 83 73 74 72 72 76 82 83 83 83 82 82
85 87 90 89 83 85 85 85 84 84 84 85 85 80 82 82 82 79 86 85 85 85 85 85 85 84 83 82 77 84 82 75 75 71 72 76 77 83 83 83 82 82 82
82 88 92 90 90 90 93 84 85 87 86 84 83 87 81 76 79 82 84 86 86 86 85 80 80 84 80 75 73 80 84 76 76 74 74 80 81 82 82 82 82 82 82
90 90 88 92 89 93 89 90 86 87 83 89 87 77 84 77 81 81 84 85 84 86 83 77 80 84 76 79 83 84 79 79 77 87 83 81 81 82 82 82 82 82 82
93 90 95 92 90 89 91 86 87 87 74 81 83 78 80 85 86 87 87 82 84 87 87 81 86 87 86 82 81 86 87 86 88 88 82 81 81 82 83 82 82 82 82
92 92 91 90 88 88 89 86 78 85 83 76 80 89 88 86 81 84 88 87 87 86 87 86 86 87 87 88 89 90 91 91 91 86 82 82 81 81 82 82 82 82 82
92 91 90 89 88 89 87 88 86 83 90 82 82 88 89 84 75 77 84 87 86 87 88 87 86 85 85 90 90 90 90 91 90 90 85 81 81 81 82 82 81 81 82
92 92 88 88 89 87 88 89 88 91 90 89 88 89 90 89 82 76 85 86 85 84 84 87 85 86 86 89 85 83 85 89 88 88 86 84 81 81 81 81 81 81 81
92 88 88 92 90 88 86 88 88 83 87 87 90 89 90 90 88 82 85 85 84 85 87 86 86 85 85 84 83 76 78 83 84 82 81 85 82 82 81 81 80 80 81
91 87 87 86 89 88 87 89 89 89 86 90 86 90 91 90 85 77 85 87 87 84 85 86 85 83 82 81 87 82 83 84 86 89 84 85 85 81 81 82 82 80 81
90 88 87 88 86 86 86 87 89 86 90 93 91 90 90 90 90 86 84 89 88 86 85 84 82 83 82 82 88 87 86 87 86 84 84 88 84 82 82 79 78 79 80
91 87 86 87 83 85 84 85 86 84 88 87 89 90 91 91 89 86 87 88 87 85 84 84 82 81 82 84 80 81 82 86 85 85 84 83 83 84 82 79 76 77 78
88 86 85 85 84 86 86 85 85 85 85 87 88 90 92 91 90 89 87 86 85 85 84 83 81 79 82 82 78 76 72 77 80 83 82 83 81 81 80 80 78 77 76
88 86 85 85 84 85 87 87 87 88 88 87 87 87 89 91 91 90 89 87 85 84 84 82 82 81 77 80 81 75 70 68 72 77 78 79 78 77 77 78 77 77 75
90 89 85 85 84 85 86 85 84 83 82 85 86 86 87 91 91 90 90 88 87 85 83 83 83 80 79 76 77 79 78 75 69 66 73 76 77 78 76 77 76 76 75
92 90 87 84 84 84 84 85 85 84 86 89 89 85 88 87 89 90 90 88 86 85 84 83 81 79 79 76 73 74 73 73 72 68 65 69 73 75 76 75 75 75 75
93 91 89 83 82 83 83 84 83 82 83 85 85 85 85 87 86 88 89 88 87 86 82 82 81 79 76 75 74 73 72 69 68 67 65 67 67 71 75 75 73 73 73
MSLP
1013.09 1013.62 1013.83 1013.98 1014.09 1014.23 1014.33 1014.41 1014.41 1014.53 1014.66 1014.73 1014.75 1014.72 1014.79 1014.80 1014.84 1014.89 1014.89 1014.98 1015.01 1014.96 1014.99 1014.97 1014.91 1014.88 1014.85 1014.80 1014.82 1014.95 1015.02 1014.91 1014.69 1014.33 1014.18 1014.43 1014.68 1014.99 1015.21 1015.38 1015.59 1015.71 1016.05
1012.90 1013.69 1014.08 1014.13 1014.24 1014.43 1014.65 1014.57 1014.65 1014.82 1014.97 1014.98 1015.02 1015.04 1015.01 1015.05 1015.09 1015.14 1015.08 1015.16 1015.12 1015.17 1015.13 1015.11 1015.13 1015.15 1015.15 1015.07 1014.95 1014.84 1014.87 1014.80 1014.53 1014.34 1014.29 1014.33 1014.17 1014.37 1014.76 1015.24 1015.60 1015.85 1015.97
1013.19 1013.91 1014.25 1014.43 1014.50 1014.65 1014.74 1014.76 1014.85 1015.01 1015.05 1015.13 1015.18 1015.18 1015.33 1015.36 1015.34 1015.30 1015.38 1015.39 1015.37 1015.37 1015.33 1015.29 1015.30 1015.38 1015.39 1015.25 1015.09 1014.97 1014.92 1014.76 1014.63 1014.72 1015.16 1015.36 1015.29 1014.30 1014.36 1014.72 1015.35 1015.89 1016.11
1012.94 1013.64 1014.28 1014.70 1014.78 1014.86 1014.99 1015.07 1015.15 1015.17 1015.25 1015.31 1015.36 1015.49 1015.57 1015.52 1015.55 1015.55 1015.55 1015.55 1015.53 1015.50 1015.46 1015.40 1015.39 1015.44 1015.46 1015.39 1015.22 1015.16 1014.90 1014.52 1014.37 1014.78 1015.20 1014.70 1015.19 1014.98 1014.53 1014.70 1015.09 1015.64 1015.97
1013.33 1013.86 1014.65 1014.95 1015.03 1015.10 1015.15 1015.25 1015.28 1015.38 1015.43 1015.53 1015.62 1015.72 1015.75 1015.78 1015.79 1015.68 1015.81 1015.77 1015.75 1015.63 1015.53 1015.40 1015.37 1015.29 1015.27 1015.27 1015.19 1015.05 1014.66 1014.39 1014.69 1014.72 1015.51 1015.03 1015.05 1015.07 1014.83 1014.93 1015.07 1015.34 1015.83
1013.26 1014.07 1014.75 1015.03 1015.14 1015.25 1015.33 1015.43 1015.52 1015.58 1015.68 1015.75 1015.79 1015.89 1015.90 1016.02 1016.00 1015.86 1015.96 1015.87 1015.84 1015.73 1015.55 1015.35 1015.25 1015.13 1015.00 1015.01 1014.90 1014.76 1014.46 1014.66 1015.21 1015.15 1014.83 1014.81 1014.62 1015.01 1015.09 1015.01 1015.00 1015.28 1015.68
1013.51 1014.41 1014.93 1015.13 1015.24 1015.39 1015.45 1015.59 1015.69 1015.70 1015.77 1015.81 1015.87 1015.95 1015.94 1016.01 1016.05 1016.03 1015.96 1015.89 1015.79 1015.62 1015.35 1015.12 1015.06 1014.95 1014.93 1014.97 1014.92 1014.81 1014.69 1015.11 1015.21 1015.93 1015.79 1014.97 1015.17 1015.19 1015.49 1015.11 1015.39 1015.32 1015.57
1013.52 1014.35 1014.83 1015.27 1015.40 1015.52 1015.50 1015.69 1015.70 1015.78 1015.81 1015.78 1015.79 1015.79 1015.83 1015.82 1015.64 1015.52 1015.59 1015.61 1015.54 1015.43 1015.24 1015.09 1015.13 1015.17 1015.16 1015.17 1015.09 1014.99 1015.08 1015.19 1015.30 1016.46 1016.37 1017.31 1017.34 1015.63 1015.78 1015.36 1015.65 1015.49 1015.64
1013.29 1014.07 1014.64 1015.22 1015.47 1015.47 1015.58 1015.63 1015.73 1015.79 1015.75 1015.67 1015.37 1015.13 1015.04 1015.01 1015.17 1015.38 1015.13 1015.13 1015.23 1015.24 1015.28 1015.40 1015.60 1015.72 1015.58 1015.21 1015.11 1015.08 1015.07 1015.26 1017.08 1017.79 1017.86 1016.55 1016.87 1015.93 1015.71 1015.64 1015.57 1015.55 1015.57
1013.47 1013.95 1014.35 1014.91 1015.01 1015.15 1015.51 1015.75 1015.78 1015.71 1015.63 1015.30 1014.81 1015.50 1014.47 1014.61 1015.82 1015.06 1015.53 1014.76 1014.89 1015.09 1015.39 1015.59 1015.75 1015.75 1015.47 1015.06 1014.73 1014.45 1014.74 1015.83 1015.86 1015.17 1015.09 1016.49 1015.74 1015.31 1015.40 1015.66 1015.54 1015.47 1015.38
1013.63 1013.85 1013.83 1014.27 1014.78 1014.94 1015.27 1015.55 1015.65 1015.69 1015.67 1015.38 1015.27 1014.80 1014.96 1014.56 1015.28 1015.17 1014.83 1014.49 1014.70 1015.10 1015.19 1015.50 1015.49 1015.46 1015.32 1015.57 1015.47 1014.27 1014.54 1015.07 1014.71 1014.37 1014.45 1015.43 1015.01 1014.98 1015.27 1015.45 1015.37 1015.45 1015.50
1013.57 1013.39 1013.40 1014.03 1014.23 1014.37 1014.60 1015.20 1015.13 1015.23 1015.23 1015.02 1014.55 1013.93 1015.29 1015.44 1014.89 1014.55 1014.27 1014.44 1014.83 1015.19 1015.26 1015.89 1015.47 1015.63 1015.91 1016.12 1014.55 1013.93 1014.39 1014.88 1014.06 1014.03 1014.59 1014.67 1014.67 1015.06 1015.32 1015.24 1015.19 1015.21 1015.35
1012.39 1012.88 1013.41 1013.69 1014.06 1013.69 1014.33 1014.34 1014.49 1014.88 1015.48 1014.64 1014.57 1014.79 1015.45 1015.71 1016.04 1014.22 1014.47 1014.88 1014.73 1014.79 1015.10 1015.29 1014.91 1015.26 1014.73 1014.82 1014.26 1014.95 1014.21 1012.84 1013.44 1013.55 1013.96 1014.19 1014.49 1014.67 1014.72 1014.93 1015.01 1015.12 1015.34
1011.69 1012.40 1012.70 1013.43 1013.70 1013.87 1013.97 1014.27 1014.49 1015.17 1016.09 1015.44 1015.03 1015.10 1015.23 1014.91 1014.27 1014.07 1014.51 1014.55 1014.27 1014.28 1014.35 1014.75 1014.34 1014.28 1014.15 1014.03 1013.46 1013.48 1012.90 1013.18 1012.84 1013.36 1014.21 1014.23 1014.29 1014.73 1014.97 1014.99 1015.17 1015.25 1015.44
1011.60 1012.11 1012.86 1013.64 1013.99 1014.13 1014.35 1014.33 1015.11 1014.99 1015.42 1015.87 1015.80 1015.34 1015.21 1014.93 1015.45 1014.83 1014.22 1014.37 1014.02 1013.94 1014.10 1014.41 1014.28 1013.85 1013.57 1013.42 1013.36 1013.36 1013.18 1012.74 1012.73 1013.53 1013.91 1014.00 1014.14 1014.40 1014.73 1015.01 1015.31 1015.48 1015.60
1011.54 1012.32 1013.29 1014.03 1014.39 1014.53 1014.78 1014.38 1014.84 1014.75 1014.50 1015.19 1015.81 1015.56 1015.38 1015.36 1015.67 1015.25 1014.72 1014.39 1014.25 1013.88 1013.57 1013.55 1013.64 1013.57 1013.39 1013.04 1012.94 1012.92 1012.98 1012.59 1012.58 1012.68 1013.52 1014.33 1014.49 1014.83 1014.92 1015.30 1015.36 1015.54 1015.63
1011.58 1012.40 1013.51 1014.20 1014.36 1014.84 1014.93 1014.61 1014.60 1014.43 1014.31 1014.52 1015.04 1015.24 1015.39 1015.00 1015.39 1016.17 1015.01 1014.37 1014.46 1014.10 1013.85 1013.22 1013.05 1013.03 1013.10 1012.85 1013.10 1013.81 1012.81 1012.78 1012.67 1012.84 1013.60 1014.15 1014.38 1015.21 1015.03 1015.28 1015.37 1015.46 1015.55
1011.52 1012.56 1013.49 1013.75 1014.29 1014.79 1015.04 1014.76 1014.54 1015.07 1014.75 1014.30 1014.65 1014.99 1015.07 1015.63 1016.20 1016.45 1015.55 1014.61 1014.59 1014.33 1013.85 1013.95 1013.83 1013.63 1013.67 1013.60 1013.12 1012.97 1013.19 1012.85 1012.89 1013.02 1013.29 1013.99 1014.34 1014.68 1015.07 1015.07 1015.27 1015.51 1015.76
1011.61 1012.58 1013.36 1013.54 1014.14 1014.69 1014.94 1014.91 1014.73 1014.79 1015.01 1014.37 1014.63 1014.76 1014.70 1015.68 1016.26 1016.24 1015.46 1014.71 1014.61 1014.58 1014.63 1014.74 1014.63 1014.39 1014.20 1014.13 1013.37 1013.47 1013.42 1012.85 1012.77 1012.90 1013.03 1013.68 1013.93 1014.60 1014.95 1015.07 1015.03 1015.62 1015.91
1011.83 1012.52 1013.27 1013.47 1014.01 1014.69 1015.22 1015.13 1014.91 1015.00 1014.61 1014.29 1014.43 1014.76 1014.91 1014.99 1015.61 1015.62 1015.09 1014.72 1014.61 1014.81 1015.11 1015.25 1015.16 1014.88 1014.60 1014.34 1013.88 1013.42 1012.94 1012.68 1012.79 1013.01 1013.26 1013.85 1014.06 1014.38 1014.65 1014.86 1015.19 1015.55 1015.87
1011.57 1012.47 1013.15 1013.48 1014.24 1014.71 1015.15 1015.13 1015.01 1015.21 1014.62 1014.43 1014.72 1014.95 1015.19 1015.15 1015.23 1015.15 1015.08 1014.97 1014.87 1015.17 1015.45 1015.50 1015.49 1015.31 1014.99 1014.67 1014.46 1014.02 1013.42 1013.33 1013.48 1013.37 1013.67 1013.81 1014.19 1014.36 1014.66 1015.06 1015.33 1015.48 1015.84
1011.29 1012.26 1013.09 1013.53 1014.21 1014.56 1014.83 1014.87 1014.83 1014.69 1014.54 1014.67 1014.89 1015.06 1015.13 1015.35 1015.45 1015.34 1015.32 1015.43 1015.35 1015.50 1015.70 1015.72 1015.91 1015.80 1015.23 1015.06 1014.93 1014.93 1014.43 1014.03 1014.42 1014.12 1013.92 1014.24 1014.48 1014.54 1014.79 1015.01 1015.21 1015.55 1015.71
1010.69 1011.77 1012.72 1013.36 1013.98 1014.41 1014.61 1014.74 1014.89 1014.90 1014.83 1014.84 1015.04 1015.23 1015.40 1015.38 1015.41 1015.35 1015.35 1015.40 1015.55 1015.57 1015.56 1015.81 1016.02 1015.93 1015.71 1015.37 1015.21 1015.48 1015.65 1015.67 1015.37 1014.66 1014.69 1014.56 1014.62 1014.75 1015.00 1015.13 1015.40 1015.42 1015.69
1010.02 1011.16 1012.21 1013.09 1013.70 1014.25 1014.55 1014.63 1014.84 1014.97 1014.96 1014.86 1014.77 1015.08 1015.27 1015.18 1015.27 1015.18 1015.31 1015.34 1015.51 1015.68 1015.73 1015.98 1016.23 1016.25 1016.12 1016.06 1015.80 1015.75 1015.82 1016.05 1016.19 1015.98 1015.33 1015.15 1014.87 1014.83 1014.95 1015.11 1015.48 1015.53 1015.70
1009.31 1010.41 1011.55 1012.67 1013.35 1013.89 1014.35 1014.49 1014.68 1014.88 1014.73 1014.56 1014.67 1015.06 1015.21 1015.25 1015.11 1015.02 1015.13 1015.39 1015.59 1015.67 1015.81 1016.11 1016.35 1016.58 1016.64 1016.67 1016.70 1016.45 1016.39 1016.38 1016.40 1016.64 1016.43 1015.87 1015.52 1015.18 1014.94 1015.13 1015.23 1015.59 1015.71
1008.68 1009.71 1010.85 1012.09 1012.93 1013.60 1014.09 1014.35 1014.72 1014.81 1014.69 1014.75 1014.75 1014.94 1014.98 1014.84 1014.94 1014.92 1015.02 1015.23 1015.41 1015.66 1015.94 1016.14 1016.51 1016.78 1017.10 1017.21 1017.17 1017.02 1016.93 1017.05 1017.25 1017.16 1017.02 1016.71 1016.44 1015.65 1014.95 1015.03 1015.37 1015.58 1015.83
Wind_Speed
11 10 9 11 12 11 10 10 12 11 10 11 10 10 11 10 10 11 12 11 11 10 11 10 10 9 8 8 8 8 7 7 7 7 11 14 15 12 10 7 4 9 11
14 12 10 10 12 12 11 11 12 10 11 10 11 10 9 11 11 10 10 11 11 11 9 10 8 7 6 6 6 6 3 3 6 8 9 12 15 15 13 9 7 10 10
16 11 10 10 12 11 11 10 11 10 11 9 9 11 11 10 11 12 11 11 10 9 8 7 7 5 4 4 3 2 2 6 7 7 8 6 5 15 13 13 13 12 10
14 12 11 10 10 10 11 10 11 10 10 11 10 11 11 10 9 10 10 10 9 8 7 5 4 4 2 1 1 2 5 9 10 9 7 4 9 12 14 11 12 11 10
14 13 11 11 11 10 11 11 11 10 11 9 10 10 10 9 9 10 8 8 7 5 4 2 1 1 1 2 3 4 8 10 13 16 15 10 7 12 14 12 11 11 9
13 14 11 12 11 10 10 10 10 10 9 10 9 9 9 9 6 8 6 6 4 3 2 2 2 3 3 5 6 6 9 7 19 14 18 3 6 12 12 10 12 12 10
15 13 10 11 11 11 9 9 9 9 9 9 9 8 7 6 6 5 4 3 1 1 3 4 5 6 6 7 7 8 8 2 10 6 11 8 2 11 9 10 10 10 10
17 13 11 10 11 10 10 10 9 10 9 9 7 6 6 6 7 8 6 5 4 5 6 7 7 8 8 8 8 9 9 8 8 13 11 4 27 11 8 9 7 7 8
14 12 9 9 10 10 10 8 8 8 7 7 8 9 9 10 11 9 10 8 7 7 7 8 8 9 10 11 11 12 11 8 15 9 5 9 22 10 10 9 10 9 8
10 10 11 9 10 9 9 8 8 8 9 9 10 7 10 10 8 5 10 11 9 7 6 9 10 10 11 12 14 15 13 11 11 8 7 6 16 8 10 9 8 8 9
7 10 10 10 8 8 9 8 8 9 8 7 7 5 13 4 3 11 8 10 9 8 7 8 11 11 10 14 25 26 16 5 3 6 2 12 13 9 8 8 6 6 7
11 13 10 11 7 11 9 8 9 9 7 6 8 5 4 5 6 8 7 6 6 7 6 21 21 10 12 2 6 21 2 3 7 6 6 13 10 8 7 5 5 6 7
16 14 10 12 10 9 7 7 3 4 3 2 7 10 6 6 2 6 3 3 2 8 5 7 6 6 8 5 6 4 5 4 5 8 10 14 12 7 5 6 4 3 5
13 11 13 11 6 7 4 1 4 6 3 6 7 4 4 3 2 3 2 3 2 1 6 6 3 6 8 7 3 6 7 7 2 5 6 10 11 7 5 4 5 4 3
11 10 13 8 5 4 2 4 5 2 5 8 6 3 4 4 7 8 2 2 3 4 4 2 2 3 4 6 6 3 6 2 6 6 4 13 13 11 8 7 7 8 7
12 11 13 9 5 4 1 3 5 5 3 6 4 4 4 5 1 6 6 3 4 4 2 1 3 5 3 3 3 4 3 3 6 4 6 4 10 9 11 9 8 6 8
11 11 12 11 8 6 3 2 2 2 1 4 6 5 3 2 6 6 6 4 5 6 6 3 5 3 6 6 7 6 10 4 4 6 8 6 8 10 11 9 8 8 7
12 12 12 12 11 8 7 4 3 5 4 2 6 3 4 4 6 7 4 3 4 5 5 6 7 6 5 7 2 3 4 1 4 7 6 3 6 7 6 10 10 8 7
9 13 10 8 12 9 5 3 4 3 2 5 5 4 2 6 13 8 6 3 4 4 6 6 7 7 6 8 8 3 6 4 6 8 7 7 6 8 4 7 9 9 7
10 13 10 7 11 8 6 4 3 2 5 1 4 4 5 4 3 3 4 2 4 3 5 4 4 6 4 5 8 8 6 1 5 4 1 7 6 7 6 6 5 5 8
14 13 10 7 10 7 7 4 5 7 4 3 5 6 2 2 6 7 5 2 5 5 5 5 5 7 5 4 4 7 6 8 4 4 6 5 6 5 6 6 4 2 5
15 13 11 9 11 7 4 4 1 1 1 4 5 4 1 2 3 5 4 5 5 4 3 3 4 4 3 4 3 3 5 3 6 5 3 6 5 4 6 6 4 5 4
17 16 14 11 10 8 6 4 2 2 1 2 2 3 3 3 2 1 3 3 4 5 2 4 4 5 4 4 5 3 4 3 6 4 5 4 4 2 5 2 5 3 5
17 16 15 12 11 9 7 6 6 3 4 5 4 5 5 3 2 4 2 3 3 4 4 5 5 5 6 5 5 5 3 2 2 4 5 2 3 4 4 3 4 3 5
17 17 15 15 11 11 8 6 7 5 4 2 2 5 1 3 4 5 3 2 3 3 4 5 5 5 5 4 4 4 4 4 5 3 4 5 5 4 2 4 4 4 4
16 17 17 17 14 11 11 9 5 7 6 3 4 4 4 6 6 5 4 1 0 3 5 4 6 6 5 5 4 5 3 3 3 3 3 4 5 6 1 5 5 3 4
Wind_Direction
114 110 96 97 96 96 92 97 88 82 85 78 77 75 76 79 81 82 88 86 86 86 88 92 98 97 96 94 98 101 118 135 139 128 124 128 128 121 110 104 150 105 118
117 101 88 97 93 99 102 99 95 90 77 82 86 84 85 82 77 78 75 85 87 91 94 89 91 94 98 97 99 109 127 176 183 169 157 151 143 135 127 114 107 117 121
103 125 107 94 100 101 94 89 89 90 95 89 96 91 81 93 94 97 98 97 89 85 86 94 97 94 93 109 135 165 186 247 232 203 172 165 166 141 134 129 131 137 133
130 115 101 99 96 95 102 95 88 93 99 98 101 101 107 97 95 86 89 89 90 92 99 108 110 105 104 120 261 282 278 268 274 255 210 194 171 149 136 135 135 139 138
109 105 106 103 106 111 104 98 98 100 98 106 104 104 101 97 93 100 94 91 89 92 91 88 92 118 215 253 276 283 284 290 324 332 328 196 185 146 144 144 141 141 158
112 105 107 117 115 111 108 106 104 104 105 106 105 108 103 102 110 99 100 90 82 71 49 344 316 300 283 278 275 275 279 323 54 358 327 204 96 149 151 151 146 135 140
103 111 115 124 112 112 107 107 107 109 115 112 115 119 122 124 106 102 110 108 129 248 271 271 278 280 285 288 293 292 288 16 128 127 291 43 44 147 155 141 147 144 145
117 118 128 126 118 116 110 116 115 105 113 123 127 138 152 150 169 174 171 185 218 242 252 262 271 277 281 285 281 279 284 286 183 138 139 5 329 150 147 138 154 149 150
125 132 136 137 127 121 122 125 126 123 140 151 175 187 193 198 201 195 181 189 210 232 246 259 267 275 277 276 275 270 264 290 74 64 34 100 273 163 149 154 162 163 162
130 133 132 144 154 147 146 134 148 162 176 189 210 216 220 216 215 228 210 192 209 231 247 260 268 270 270 274 275 268 257 105 89 118 214 200 228 159 166 174 174 179 172
145 155 170 166 153 152 137 162 183 190 201 225 236 149 260 263 71 201 213 172 199 204 239 263 275 267 292 11 341 302 300 117 151 176 250 205 212 166 169 181 179 194 191
191 173 166 148 148 169 136 170 200 188 188 213 254 304 113 9 278 157 227 196 244 239 213 28 310 315 355 184 269 270 66 217 204 168 201 181 154 153 172 168 192 202 209
172 170 187 135 187 188 137 189 161 94 347 166 51 4 61 204 247 287 143 21 256 227 132 174 255 157 227 223 206 206 191 234 138 181 160 156 141 126 146 180 191 206 221
157 156 145 146 177 108 199 163 52 99 146 248 108 211 339 254 352 68 337 163 285 191 150 182 235 220 192 207 199 252 245 189 117 107 136 135 124 123 121 89 57 22 316
157 131 111 112 74 123 25 103 128 269 151 54 341 76 9 10 19 335 286 293 47 14 42 142 281 285 291 208 199 93 331 4 81 119 136 152 142 126 108 89 64 43 31
141 137 119 135 126 118 281 96 101 255 107 141 186 66 35 59 43 299 315 289 54 359 104 281 255 283 276 317 39 22 324 351 89 66 138 116 116 108 99 88 86 71 56
144 145 134 144 174 138 144 193 253 275 12 164 115 107 93 18 156 283 281 40 9 326 299 259 311 41 324 12 26 26 316 351 83 66 60 125 120 116 121 119 104 87 76
153 136 155 166 156 165 170 218 295 83 322 356 137 112 99 13 39 358 301 40 319 310 17 19 357 353 1 340 313 193 272 58 275 101 96 137 137 136 154 144 134 121 103
142 136 178 164 147 155 132 206 259 55 261 263 121 112 49 76 77 297 311 73 332 344 43 18 350 352 359 329 332 156 232 192 154 118 190 114 93 142 159 143 56 117 98
177 144 184 159 138 138 165 223 227 174 263 175 90 87 15 16 59 216 285 51 305 32 48 355 341 329 311 11 338 332 313 114 36 124 85 124 88 74 63 71 66 122 126
172 153 186 166 135 155 160 199 219 188 221 190 109 114 208 33 15 327 10 56 345 54 45 347 7 347 337 352 342 340 338 71 18 48 60 34 64 53 68 88 78 340 143
159 167 181 170 155 175 191 216 184 288 189 55 92 113 101 67 344 347 354 344 360 10 87 18 43 334 341 316 356 7 338 333 15 25 53 97 62 58 59 38 38 64 60
166 166 173 175 170 191 203 207 88 352 100 82 135 178 174 155 269 177 342 35 341 320 50 20 29 22 336 345 47 65 0 357 332 2 17 67 70 71 80 14 81 31 82
167 166 168 183 174 184 220 190 175 211 202 211 197 110 162 189 247 276 93 19 333 347 38 39 41 348 351 2 0 17 72 255 307 339 340 49 20 60 123 76 75 46 77
178 171 171 176 183 183 206 237 173 228 225 187 126 129 193 194 218 251 99 18 355 328 42 60 51 31 15 19 4 349 12 359 34 11 301 335 10 329 113 112 92 43 48
187 174 174 176 182 193 184 213 244 192 255 301 194 161 220 208 209 210 119 167 321 3 44 53 30 56 39 43 356 350 42 23 1 356 338 332 345 307 329 93 81 65 48